When you browse on this site, cookies collect data to enhance your experience and personalize the content and advertising you see.
Visit our Privacy Policy to learn more. By continuing to use the site, you agree to this use of cookies and data.
  • In Czech Republic
  • List of Countries
  • For 7 days
  • Water Temperature
  • Weather Map
  • Weather Widgets
  • user-avatar
    Login

    Hourly Weather La Garenne-Colombes

    Today, 1 June, Monday

    Time Temperature Precipitation Wind Pressure Humidity
    00:00 +14°C° 0 mm 3 mps 758 mmHg 68%
    01:00 +13°C° 0 mm 3 mps 758 mmHg 69%
    02:00 +13°C° 0 mm 3 mps 758 mmHg 70%
    03:00 +12°C° 0 mm 3 mps 757 mmHg 71%
    04:00 +13°C° 0 mm 3 mps 757 mmHg 70%
    05:00 +13°C° 0 mm 4 mps 758 mmHg 69%
    06:00 +14°C° 0 mm 4 mps 758 mmHg 68%
    07:00 +17°C° 0 mm 4 mps 758 mmHg 63%
    08:00 +18°C° 0 mm 4 mps 758 mmHg 59%
    09:00 +20°C° 0 mm 5 mps 758 mmHg 54%
    10:00 +21°C° 0 mm 5 mps 758 mmHg 52%
    11:00 +22°C° 0 mm 5 mps 758 mmHg 50%
    12:00 +25°C° 0 mm 5 mps 758 mmHg 47%
    13:00 +25°C° 0 mm 5 mps 757 mmHg 48%
    14:00 +25°C° 0 mm 5 mps 757 mmHg 49%
    15:00 +26°C° 0 mm 4 mps 757 mmHg 50%
    16:00 +25°C° 0 mm 4 mps 757 mmHg 53%
    17:00 +25°C° 0 mm 4 mps 757 mmHg 57%
    18:00 +23°C° 0 mm 4 mps 757 mmHg 60%
    19:00 +22°C° 0 mm 3 mps 757 mmHg 63%
    20:00 +21°C° 0 mm 3 mps 757 mmHg 67%
    21:00 +19°C° 0 mm 2 mps 758 mmHg 70%
    22:00 +19°C° 0 mm 2 mps 758 mmHg 72%
    23:00 +18°C° 0 mm 3 mps 757 mmHg 74%

    Tomorrow, 2 June, Tuesday

    Time Temperature Precipitation Wind Pressure Humidity
    00:00 +17°C° 0 mm 3 mps 757 mmHg 77%
    01:00 +17°C° 0 mm 3 mps 757 mmHg 77%
    02:00 +16°C° 0 mm 2 mps 757 mmHg 78%
    03:00 +16°C° 0 mm 2 mps 757 mmHg 79%
    04:00 +16°C° 0 mm 2 mps 757 mmHg 76%
    05:00 +17°C° 0 mm 2 mps 757 mmHg 73%
    06:00 +17°C° 0 mm 2 mps 757 mmHg 70%
    07:00 +19°C° 0 mm 2 mps 757 mmHg 64%
    08:00 +21°C° 0 mm 2 mps 757 mmHg 58%
    09:00 +24°C° 0 mm 3 mps 757 mmHg 53%
    10:00 +25°C° 0 mm 3 mps 757 mmHg 49%
    11:00 +26°C° 0 mm 3 mps 757 mmHg 45%
    12:00 +27°C° 0 mm 3 mps 756 mmHg 41%
    13:00 +28°C° 0 mm 3 mps 756 mmHg 42%
    14:00 +28°C° 0 mm 3 mps 755 mmHg 42%
    15:00 +28°C° 0 mm 3 mps 755 mmHg 42%
    16:00 +27°C° 0 mm 3 mps 755 mmHg 46%
    17:00 +27°C° 0 mm 2 mps 754 mmHg 51%
    18:00 +26°C° 0 mm 2 mps 754 mmHg 55%
    19:00 +24°C° 0 mm 2 mps 754 mmHg 61%
    20:00 +21°C° 0 mm 2 mps 754 mmHg 67%
    21:00 +20°C° 0 mm 3 mps 754 mmHg 72%
    22:00 +19°C° 0 mm 2 mps 754 mmHg 74%
    23:00 +18°C° 0 mm 2 mps 753 mmHg 75%

    Day after tomorrow, 3 June, Wednesday

    Time Temperature Precipitation Wind Pressure Humidity
    00:00 +18°C° 0 mm 2 mps 753 mmHg 76%
    01:00 +17°C° 0 mm 2 mps 752 mmHg 76%
    02:00 +17°C° 0 mm 2 mps 752 mmHg 75%
    03:00 +16°C° 0 mm 2 mps 751 mmHg 74%
    04:00 +17°C° 0.2 mm 2 mps 751 mmHg 73%
    05:00 +17°C° 0.2 mm 2 mps 751 mmHg 72%
    06:00 +17°C° 0.2 mm 2 mps 750 mmHg 72%
    07:00 +18°C° 0.3 mm 2 mps 750 mmHg 68%
    08:00 +19°C° 0.3 mm 2 mps 750 mmHg 64%
    09:00 +20°C° 0.3 mm 2 mps 750 mmHg 61%
    10:00 +23°C° 0.2 mm 2 mps 749 mmHg 57%
    11:00 +24°C° 0.2 mm 2 mps 749 mmHg 53%
    12:00 +25°C° 0.2 mm 2 mps 748 mmHg 50%
    13:00 +25°C° 0.2 mm 2 mps 748 mmHg 49%
    14:00 +25°C° 0.2 mm 2 mps 747 mmHg 49%
    15:00 +25°C° 0.2 mm 2 mps 747 mmHg 49%
    16:00 +24°C° 0.3 mm 2 mps 747 mmHg 56%
    17:00 +22°C° 0.3 mm 3 mps 747 mmHg 62%
    18:00 +21°C° 0.3 mm 3 mps 746 mmHg 69%
    19:00 +20°C° 0.3 mm 3 mps 747 mmHg 72%
    20:00 +19°C° 0.3 mm 3 mps 747 mmHg 75%
    21:00 +18°C° 0.3 mm 3 mps 747 mmHg 79%
    22:00 +17°C° 0.1 mm 3 mps 747 mmHg 80%
    23:00 +16°C° 0.1 mm 3 mps 747 mmHg 81%

    4 June, Thursday

    Time Temperature Precipitation Wind Pressure Humidity
    00:00 +14°C° 0.1 mm 3 mps 747 mmHg 82%
    01:00 +14°C° 0 mm 3 mps 747 mmHg 84%
    02:00 +13°C° 0 mm 3 mps 747 mmHg 85%
    03:00 +13°C° 0 mm 3 mps 747 mmHg 87%
    04:00 +13°C° 0 mm 3 mps 747 mmHg 85%
    05:00 +13°C° 0 mm 3 mps 747 mmHg 82%
    06:00 +14°C° 0 mm 3 mps 747 mmHg 80%
    07:00 +14°C° 0 mm 3 mps 747 mmHg 77%
    08:00 +16°C° 0 mm 3 mps 747 mmHg 73%
    09:00 +17°C° 0 mm 3 mps 747 mmHg 70%
    10:00 +18°C° 0 mm 3 mps 747 mmHg 66%
    11:00 +19°C° 0 mm 3 mps 747 mmHg 62%
    12:00 +20°C° 0 mm 3 mps 747 mmHg 59%
    13:00 +20°C° 0 mm 3 mps 747 mmHg 59%
    14:00 +20°C° 0 mm 3 mps 747 mmHg 60%
    15:00 +20°C° 0 mm 4 mps 747 mmHg 60%
    16:00 +19°C° 0 mm 3 mps 747 mmHg 62%
    17:00 +19°C° 0 mm 3 mps 747 mmHg 63%
    18:00 +18°C° 0 mm 3 mps 748 mmHg 64%
    19:00 +17°C° 0 mm 3 mps 748 mmHg 69%
    20:00 +16°C° 0 mm 3 mps 748 mmHg 73%
    21:00 +13°C° 0 mm 3 mps 749 mmHg 78%
    22:00 +14°C° 0 mm 2 mps 749 mmHg 79%
    23:00 +13°C° 0 mm 2 mps 749 mmHg 80%

    5 June, Friday

    Time Temperature Precipitation Wind Pressure Humidity
    00:00 +12°C° 0 mm 1 mps 748 mmHg 81%
    01:00 +12°C° 0 mm 1 mps 748 mmHg 82%
    02:00 +12°C° 0 mm 1 mps 748 mmHg 82%
    03:00 +11°C° 0 mm 1 mps 748 mmHg 83%
    04:00 +12°C° 0 mm 1 mps 748 mmHg 80%
    05:00 +12°C° 0 mm 2 mps 748 mmHg 78%
    06:00 +13°C° 0 mm 2 mps 748 mmHg 76%
    07:00 +14°C° 0 mm 3 mps 747 mmHg 68%
    08:00 +15°C° 0 mm 4 mps 747 mmHg 60%
    09:00 +18°C° 0 mm 4 mps 747 mmHg 52%
    10:00 +19°C° 0 mm 5 mps 747 mmHg 49%
    11:00 +20°C° 0 mm 5 mps 746 mmHg 46%
    12:00 +21°C° 0 mm 5 mps 746 mmHg 43%
    13:00 +21°C° 0 mm 6 mps 746 mmHg 44%
    14:00 +22°C° 0 mm 6 mps 746 mmHg 45%
    15:00 +22°C° 0 mm 6 mps 745 mmHg 46%
    16:00 +20°C° 0 mm 6 mps 745 mmHg 52%
    17:00 +19°C° 0 mm 5 mps 745 mmHg 57%
    18:00 +17°C° 0 mm 5 mps 745 mmHg 63%
    19:00 +16°C° 0 mm 5 mps 746 mmHg 65%
    20:00 +17°C° 0 mm 4 mps 746 mmHg 68%
    21:00 +15°C° 0 mm 4 mps 746 mmHg 70%
    22:00 +15°C° 0 mm 4 mps 746 mmHg 72%
    23:00 +14°C° 0 mm 4 mps 747 mmHg 74%

    6 June, Saturday

    Time Temperature Precipitation Wind Pressure Humidity
    00:00 +14°C° 0 mm 4 mps 747 mmHg 76%
    01:00 +13°C° 0 mm 4 mps 747 mmHg 76%
    02:00 +12°C° 0 mm 4 mps 747 mmHg 77%
    03:00 +11°C° 0 mm 4 mps 747 mmHg 77%
    04:00 +11°C° 0 mm 4 mps 748 mmHg 76%
    05:00 +11°C° 0 mm 4 mps 748 mmHg 75%
    06:00 +12°C° 0 mm 4 mps 748 mmHg 74%
    07:00 +13°C° 0 mm 4 mps 749 mmHg 68%
    08:00 +14°C° 0 mm 4 mps 749 mmHg 62%
    09:00 +17°C° 0 mm 4 mps 749 mmHg 56%
    10:00 +17°C° 0.2 mm 4 mps 749 mmHg 57%
    11:00 +17°C° 0.2 mm 4 mps 750 mmHg 58%
    12:00 +17°C° 0.2 mm 4 mps 750 mmHg 60%
    13:00 +17°C° 0.2 mm 4 mps 750 mmHg 57%
    14:00 +18°C° 0.2 mm 4 mps 750 mmHg 55%
    15:00 +18°C° 0.2 mm 4 mps 750 mmHg 52%
    16:00 +17°C° 0.1 mm 4 mps 750 mmHg 53%
    17:00 +17°C° 0.1 mm 4 mps 751 mmHg 54%
    18:00 +15°C° 0.1 mm 4 mps 751 mmHg 55%
    19:00 +13°C° 0 mm 4 mps 751 mmHg 57%
    20:00 +12°C° 0 mm 3 mps 752 mmHg 60%
    21:00 +10°C° 0 mm 3 mps 752 mmHg 62%
    22:00 +10°C° 0 mm 3 mps 753 mmHg 64%
    23:00 +9°C° 0 mm 2 mps 753 mmHg 67%
    Show more